Location: Alexandria
(38.8050°N, 77.0470°W)
Time: 21:58:39
(UTC-05:00)

Envisat - Pass Details

Date: 11 February 2018
Orbit: 764 x 766 km, 98.2° (Epoch: 22 February)

Event Time Altitude Azimuth Distance (km) Brightness Sun altitude
Exits shadow 20:05:29 19° 189° (S) 1,754 4.9 -28.6°
Maximum altitude 20:08:57 53° 260° (W) 942 3.7 -29.2°
Drops below altitude 10° 20:13:55 10° 337° (NNW) 2,309 5.8 -30.2°
Sets 20:16:18 0° 342° (NNW) 3,239 6.5 -30.7°
